Time,TemperatureF,DewpointF,PressureIn,WindDirection,WindDirectionDegrees,WindSpeedMPH,WindSpeedGustMPH,Humidity,HourlyPrecipIn,Conditions,Clouds,dailyrainin,SoftwareType,DateUTC
2013-03-07 00:01:00,29.1,22.2,29.96,ESE,112,0.0,-999.0,75,-99.99,,,0.00,Acu-Link.com,2013-03-07 05:01:00,
2013-03-07 00:17:00,28.8,22.2,29.96,SSE,157,0.0,-999.0,76,-99.99,,,0.00,Acu-Link.com,2013-03-07 05:17:00,
2013-03-07 00:32:00,28.4,21.8,29.96,West,270,1.7,-999.0,76,-99.99,,,0.00,Acu-Link.com,2013-03-07 05:32:00,
2013-03-07 00:47:00,28.0,22.0,29.97,West,270,0.0,-999.0,78,-99.99,,,0.00,Acu-Link.com,2013-03-07 05:47:00,
2013-03-07 01:02:00,28.0,21.7,29.98,NE,45,0.0,-999.0,77,-99.99,,,0.00,Acu-Link.com,2013-03-07 06:02:00,
2013-03-07 01:17:00,27.7,21.4,29.98,East,90,0.0,-999.0,77,-99.99,,,0.00,Acu-Link.com,2013-03-07 06:17:00,
2013-03-07 01:32:00,27.5,21.6,29.98,NNE,22,0.0,-999.0,78,-99.99,,,0.00,Acu-Link.com,2013-03-07 06:32:00,
2013-03-07 01:47:00,27.3,21.4,29.98,ESE,112,0.0,-999.0,78,-99.99,,,0.00,Acu-Link.com,2013-03-07 06:47:00,
2013-03-07 02:02:00,27.0,21.1,29.97,WNW,292,0.0,-999.0,78,-99.99,,,0.00,Acu-Link.com,2013-03-07 07:02:00,
2013-03-07 02:17:00,27.0,21.4,29.98,NNW,337,0.0,-999.0,79,-99.99,,,0.00,Acu-Link.com,2013-03-07 07:17:00,
2013-03-07 02:33:00,26.8,21.2,29.98,NNW,337,0.0,-999.0,79,-99.99,,,0.00,Acu-Link.com,2013-03-07 07:33:00,
2013-03-07 02:48:00,26.2,20.6,29.99,WNW,292,0.0,-999.0,79,-99.99,,,0.00,Acu-Link.com,2013-03-07 07:48:00,
2013-03-07 03:03:00,26.4,20.8,29.99,ESE,112,0.0,-999.0,79,-99.99,,,0.00,Acu-Link.com,2013-03-07 08:03:00,
2013-03-07 03:18:00,26.2,20.3,29.99,WNW,292,0.0,-999.0,78,-99.99,,,0.00,Acu-Link.com,2013-03-07 08:18:00,
2013-03-07 03:33:00,26.2,20.6,30.00,NNW,337,0.0,-999.0,79,-99.99,,,0.00,Acu-Link.com,2013-03-07 08:33:00,
2013-03-07 03:48:00,26.1,20.2,30.00,ESE,112,0.0,-999.0,78,-99.99,,,0.00,Acu-Link.com,2013-03-07 08:48:00,
2013-03-07 04:03:00,26.1,20.2,30.00,East,90,0.0,-999.0,78,-99.99,,,0.00,Acu-Link.com,2013-03-07 09:03:00,
2013-03-07 04:19:00,25.9,20.0,30.00,West,270,0.0,-999.0,78,-99.99,,,0.00,Acu-Link.com,2013-03-07 09:19:00,
2013-03-07 04:34:00,25.7,19.8,30.02,NNW,337,0.0,-999.0,78,-99.99,,,0.00,Acu-Link.com,2013-03-07 09:34:00,
2013-03-07 04:49:00,25.5,19.6,30.02,NE,45,0.0,-999.0,78,-99.99,,,0.00,Acu-Link.com,2013-03-07 09:49:00,
2013-03-07 05:04:00,25.3,19.7,30.03,ENE,67,0.0,-999.0,79,-99.99,,,0.00,Acu-Link.com,2013-03-07 10:04:00,
2013-03-07 05:19:00,25.2,19.3,30.03,WNW,292,0.0,-999.0,78,-99.99,,,0.00,Acu-Link.com,2013-03-07 10:19:00,
2013-03-07 05:34:00,25.0,19.4,30.04,East,90,0.0,-999.0,79,-99.99,,,0.00,Acu-Link.com,2013-03-07 10:34:00,
2013-03-07 05:49:00,24.8,19.2,30.04,SSW,202,0.0,-999.0,79,-99.99,,,0.00,Acu-Link.com,2013-03-07 10:49:00,
2013-03-07 06:04:00,24.6,18.7,30.04,West,270,0.0,-999.0,78,-99.99,,,0.00,Acu-Link.com,2013-03-07 11:04:00,
2013-03-07 06:19:00,24.6,19.0,30.05,NNW,337,0.0,-999.0,79,-99.99,,,0.00,Acu-Link.com,2013-03-07 11:19:00,
2013-03-07 06:35:00,24.4,18.5,30.05,NE,45,0.0,-999.0,78,-99.99,,,0.00,Acu-Link.com,2013-03-07 11:35:00,
2013-03-07 06:50:00,24.4,18.5,30.05,SE,135,0.0,-999.0,78,-99.99,,,0.00,Acu-Link.com,2013-03-07 11:50:00,
2013-03-07 07:05:00,24.1,18.3,30.05,North,0,0.0,-999.0,78,-99.99,,,0.00,Acu-Link.com,2013-03-07 12:05:00,
2013-03-07 07:20:00,24.8,19.2,30.06,North,0,0.0,-999.0,79,-99.99,,,0.00,Acu-Link.com,2013-03-07 12:20:00,
2013-03-07 07:35:00,25.7,20.1,30.06,North,0,0.0,-999.0,79,-99.99,,,0.00,Acu-Link.com,2013-03-07 12:35:00,
2013-03-07 07:50:00,26.8,21.5,30.06,NNE,22,0.0,-999.0,80,-99.99,,,0.00,Acu-Link.com,2013-03-07 12:50:00,
2013-03-07 08:05:00,27.9,22.8,30.06,South,180,0.0,-999.0,81,-99.99,,,0.00,Acu-Link.com,2013-03-07 13:05:00,
2013-03-07 08:20:00,29.3,24.2,30.06,NNE,22,0.0,-999.0,81,-99.99,,,0.00,Acu-Link.com,2013-03-07 13:20:00,
2013-03-07 08:35:00,31.6,26.7,30.07,SE,135,0.0,-999.0,82,-99.99,,,0.00,Acu-Link.com,2013-03-07 13:35:00,
2013-03-07 08:51:00,33.8,28.0,30.08,SW,225,0.0,-999.0,79,-99.99,,,0.00,Acu-Link.com,2013-03-07 13:51:00,
2013-03-07 09:06:00,36.1,26.6,30.09,SE,135,1.7,-999.0,68,-99.99,,,0.00,Acu-Link.com,2013-03-07 14:06:00,
2013-03-07 09:21:00,38.3,27.2,30.08,SE,135,0.0,-999.0,64,-99.99,,,0.00,Acu-Link.com,2013-03-07 14:21:00,
2013-03-07 09:36:00,40.3,26.7,30.09,NNW,337,0.0,-999.0,58,-99.99,,,0.00,Acu-Link.com,2013-03-07 14:36:00,
2013-03-07 09:51:00,43.0,25.2,30.08,NNE,22,0.0,-999.0,49,-99.99,,,0.00,Acu-Link.com,2013-03-07 14:51:00,
2013-03-07 10:06:00,44.4,24.9,30.07,SSW,202,1.1,-999.0,46,-99.99,,,0.00,Acu-Link.com,2013-03-07 15:06:00,
2013-03-07 10:21:00,46.0,24.8,30.07,SW,225,0.0,-999.0,43,-99.99,,,0.00,Acu-Link.com,2013-03-07 15:21:00,
2013-03-07 10:36:00,47.8,25.3,30.06,East,90,1.7,-999.0,41,-99.99,,,0.00,Acu-Link.com,2013-03-07 15:36:00,
2013-03-07 10:51:00,52.2,24.0,30.06,SSE,157,1.1,-999.0,33,-99.99,,,0.00,Acu-Link.com,2013-03-07 15:51:00,
2013-03-07 11:07:00,51.4,23.3,30.05,North,0,1.1,-999.0,33,-99.99,,,0.00,Acu-Link.com,2013-03-07 16:07:00,
2013-03-07 11:22:00,51.3,23.9,30.05,WSW,247,1.7,-999.0,34,-99.99,,,0.00,Acu-Link.com,2013-03-07 16:22:00,
2013-03-07 11:37:00,50.7,25.4,30.05,ENE,67,1.7,-999.0,37,-99.99,,,0.00,Acu-Link.com,2013-03-07 16:37:00,
2013-03-07 11:52:00,50.4,23.1,30.05,SSE,157,1.7,-999.0,34,-99.99,,,0.00,Acu-Link.com,2013-03-07 16:52:00,
2013-03-07 12:07:00,52.3,24.1,30.04,West,270,1.1,-999.0,33,-99.99,,,0.00,Acu-Link.com,2013-03-07 17:07:00,
2013-03-07 12:22:00,54.3,25.8,30.03,East,90,1.1,-999.0,33,-99.99,,,0.00,Acu-Link.com,2013-03-07 17:22:00,
2013-03-07 12:53:00,55.0,24.9,30.02,North,0,2.2,-999.0,31,-99.99,,,0.00,Acu-Link.com,2013-03-07 17:53:00,
2013-03-07 13:08:00,55.8,24.8,30.01,NNE,22,0.0,-999.0,30,-99.99,,,0.00,Acu-Link.com,2013-03-07 18:08:00,
2013-03-07 13:23:00,55.2,21.8,30.00,NNE,22,1.7,-999.0,27,-99.99,,,0.00,Acu-Link.com,2013-03-07 18:23:00,
2013-03-07 13:38:00,58.1,24.3,29.99,SSE,157,2.7,-999.0,27,-99.99,,,0.00,Acu-Link.com,2013-03-07 18:38:00,
2013-03-07 13:53:00,56.8,21.4,29.98,NNW,337,1.7,-999.0,25,-99.99,,,0.00,Acu-Link.com,2013-03-07 18:53:00,
2013-03-07 14:09:00,58.1,23.4,29.98,South,180,1.7,-999.0,26,-99.99,,,0.00,Acu-Link.com,2013-03-07 19:09:00,
2013-03-07 14:24:00,57.4,24.6,29.98,ESE,112,2.2,-999.0,28,-99.99,,,0.00,Acu-Link.com,2013-03-07 19:24:00,
2013-03-07 14:39:00,58.1,22.5,29.98,South,180,1.1,-999.0,25,-99.99,,,0.00,Acu-Link.com,2013-03-07 19:39:00,
2013-03-07 14:54:00,59.2,20.4,29.97,West,270,2.2,-999.0,22,-99.99,,,0.00,Acu-Link.com,2013-03-07 19:54:00,
2013-03-07 15:09:00,58.6,19.9,29.98,West,270,2.2,-999.0,22,-99.99,,,0.00,Acu-Link.com,2013-03-07 20:09:00,
2013-03-07 15:24:00,60.4,19.2,29.98,SSE,157,0.0,-999.0,20,-99.99,,,0.00,Acu-Link.com,2013-03-07 20:24:00,
2013-03-07 15:39:00,59.5,20.6,29.98,SW,225,2.7,-999.0,22,-99.99,,,0.00,Acu-Link.com,2013-03-07 20:39:00,
2013-03-07 15:55:00,58.3,20.7,29.98,SSE,157,1.1,-999.0,23,-99.99,,,0.00,Acu-Link.com,2013-03-07 20:55:00,
2013-03-07 16:10:00,59.7,20.8,29.98,North,0,1.7,-999.0,22,-99.99,,,0.00,Acu-Link.com,2013-03-07 21:10:00,
2013-03-07 16:25:00,59.5,19.5,29.98,NE,45,1.7,-999.0,21,-99.99,,,0.00,Acu-Link.com,2013-03-07 21:25:00,
2013-03-07 16:40:00,57.9,20.3,29.98,South,180,1.1,-999.0,23,-99.99,,,0.00,Acu-Link.com,2013-03-07 21:40:00,
2013-03-07 16:55:00,58.1,21.5,29.98,East,90,1.1,-999.0,24,-99.99,,,0.00,Acu-Link.com,2013-03-07 21:55:00,
2013-03-07 17:10:00,57.6,22.0,29.98,ESE,112,1.1,-999.0,25,-99.99,,,0.00,Acu-Link.com,2013-03-07 22:10:00,
2013-03-07 17:26:00,56.3,22.8,29.98,SSE,157,0.0,-999.0,27,-99.99,,,0.00,Acu-Link.com,2013-03-07 22:26:00,
2013-03-07 17:41:00,54.9,24.1,29.98,NNW,337,1.1,-999.0,30,-99.99,,,0.00,Acu-Link.com,2013-03-07 22:41:00,
2013-03-07 17:56:00,53.4,25.0,29.98,SW,225,0.0,-999.0,33,-99.99,,,0.00,Acu-Link.com,2013-03-07 22:56:00,
2013-03-07 18:11:00,52.2,24.7,29.99,SW,225,0.0,-999.0,34,-99.99,,,0.00,Acu-Link.com,2013-03-07 23:11:00,
2013-03-07 18:26:00,50.9,22.8,30.00,SSW,202,0.0,-999.0,33,-99.99,,,0.00,Acu-Link.com,2013-03-07 23:26:00,
2013-03-07 18:41:00,49.6,22.4,30.00,West,270,0.0,-999.0,34,-99.99,,,0.00,Acu-Link.com,2013-03-07 23:41:00,
2013-03-07 18:56:00,48.4,23.3,30.01,WSW,247,0.0,-999.0,37,-99.99,,,0.00,Acu-Link.com,2013-03-07 23:56:00,
2013-03-07 19:27:00,46.0,23.0,30.02,ESE,112,0.0,-999.0,40,-99.99,,,0.00,Acu-Link.com,2013-03-08 00:27:00,
2013-03-07 19:42:00,45.1,22.8,30.03,NNW,337,0.0,-999.0,41,-99.99,,,0.00,Acu-Link.com,2013-03-08 00:42:00,
2013-03-07 19:57:00,43.9,25.5,30.03,SW,225,0.0,-999.0,48,-99.99,,,0.00,Acu-Link.com,2013-03-08 00:57:00,
2013-03-07 20:12:00,43.0,24.7,30.04,WNW,292,0.0,-999.0,48,-99.99,,,0.00,Acu-Link.com,2013-03-08 01:12:00,
2013-03-07 20:27:00,42.4,22.6,30.04,WSW,247,2.2,-999.0,45,-99.99,,,0.00,Acu-Link.com,2013-03-08 01:27:00,
2013-03-07 20:42:00,42.6,22.8,30.05,SSW,202,0.0,-999.0,45,-99.99,,,0.00,Acu-Link.com,2013-03-08 01:42:00,
2013-03-07 20:57:00,42.4,22.1,30.06,ESE,112,0.0,-999.0,44,-99.99,,,0.00,Acu-Link.com,2013-03-08 01:57:00,
2013-03-07 21:12:00,41.7,21.9,30.07,West,270,0.0,-999.0,45,-99.99,,,0.00,Acu-Link.com,2013-03-08 02:12:00,
2013-03-07 21:28:00,41.2,22.0,30.07,WNW,292,0.0,-999.0,46,-99.99,,,0.00,Acu-Link.com,2013-03-08 02:28:00,
2013-03-07 21:43:00,40.6,21.5,30.07,WSW,247,0.0,-999.0,46,-99.99,,,0.00,Acu-Link.com,2013-03-08 02:43:00,
2013-03-07 21:58:00,40.1,22.0,30.08,NE,45,0.0,-999.0,48,-99.99,,,0.00,Acu-Link.com,2013-03-08 02:58:00,
2013-03-07 22:13:00,39.6,21.5,30.08,NE,45,0.0,-999.0,48,-99.99,,,0.00,Acu-Link.com,2013-03-08 03:13:00,
2013-03-07 22:28:00,38.7,21.7,30.09,East,90,0.0,-999.0,50,-99.99,,,0.00,Acu-Link.com,2013-03-08 03:28:00,
2013-03-07 22:43:00,37.9,22.3,30.08,East,90,0.0,-999.0,53,-99.99,,,0.00,Acu-Link.com,2013-03-08 03:43:00,
2013-03-07 22:58:00,37.2,22.1,30.09,ENE,67,0.0,-999.0,54,-99.99,,,0.00,Acu-Link.com,2013-03-08 03:58:00,
2013-03-07 23:13:00,36.5,21.5,30.09,WNW,292,0.0,-999.0,54,-99.99,,,0.00,Acu-Link.com,2013-03-08 04:13:00,
2013-03-07 23:28:00,35.8,21.2,30.09,East,90,0.0,-999.0,55,-99.99,,,0.00,Acu-Link.com,2013-03-08 04:28:00,
2013-03-07 23:44:00,35.1,21.8,30.10,SSE,157,0.0,-999.0,58,-99.99,,,0.00,Acu-Link.com,2013-03-08 04:44:00,
2013-03-07 23:59:00,35.1,21.0,30.10,ESE,112,0.0,-999.0,56,-99.99,,,0.00,Acu-Link.com,2013-03-08 04:59:00,